This demonstration page uses our WeatherBlox Daily Observations layout. Learn more.

Left ArrowRight Arrow

34.74481, -87.66753

Hourly Observations for September 12, 2019

Temp ( °F °C ) Dew Point ( °F °C ) Humidity (%) Winds ( mph kmh ) Pressure ( in mb ) Visibility ( mi km ) Precip ( " mm )
12:53 am 00:53 Clear with Mist and Fog 72 22.2 70 21.1 94 94 Calm 30.12 1020 6 10 0.00 0.00
1:53 am 01:53 Clear with Mist and Fog 72 22.2 69 20.6 91 91 Calm 30.11 1020 6 10 0.00 0.00
2:53 am 02:53 Clear with Mist and Fog 71 21.7 68 20 90 90 Calm 30.10 1019 6 10 0.00 0.00
3:53 am 03:53 Clear with Mist and Fog 71 21.7 69 20.6 94 94 Calm 30.10 1019 5 8 0.00 0.00
4:40 am 04:40 Clear with Mist and Fog 71 21.7 68 20 90 90 Calm 30.11 1020 2 2 0.00 0.00
4:49 am 04:49 Clear with Mist and Fog 70 21 66 19 88 88 Calm 30.13 1020 1 1 0.00 0.00
4:53 am 04:53 Clear with Mist and Fog 70 21.1 67 19.4 90 90 Calm 30.12 1020 2 3 0.00 0.00
4:56 am 04:56 Clear with Mist and Fog 70 21.1 68 20 93 93 Calm 30.13 1020 3 5 0.00 0.00
5:53 am 05:53 Clear with Mist and Fog 70 21.1 68 20 93 93 Calm 30.15 1021 5 8 0.00 0.00
6:53 am 06:53 Sunny with Mist and Fog 70 21.1 68 20 93 93 Calm 30.16 1021 5 8 0.00 0.00
7:53 am 07:53 Sunny with Mist and Fog 73 22.8 70 21.1 90 90 Calm 30.17 1022 6 10 0.00 0.00
8:53 am 08:53 Sunny 79 26.1 72 22.2 79 79 E 3 6 30.18 1022 10 16 0.00 0.00
9:53 am 09:53 Sunny 84 28.9 70 21.1 63 63 E 3 6 30.17 1022 10 16 0.00 0.00
10:53 am 10:53 Sunny 89 31.7 71 21.7 55 55 VRB 3 6 30.16 1022 10 16 0.00 0.00
11:53 am 11:53 Sunny 93 33.9 69 20.6 46 46 VRB 5 7 30.15 1021 10 16 0.00 0.00
12:53 pm 12:53 Sunny 93 33.9 69 20.6 46 46 WNW 6 9 30.14 1021 10 16 0.00 0.00
1:53 pm 13:53 Sunny 93 33.9 68 20 44 44 Calm 30.11 1020 10 16 0.00 0.00
2:53 pm 14:53 Sunny 96 35.6 64 17.8 35 35 E 5 7 30.09 1019 10 16 0.00 0.00
3:53 pm 15:53 Sunny 98 36.7 63 17.2 32 32 VRB 3 6 30.07 1018 10 16 0.00 0.00
4:53 pm 16:53 Sunny 97 36.1 64 17.8 34 34 NW 5 7 30.06 1018 10 16 0.00 0.00
5:53 pm 17:53 Sunny 95 35 66 18.9 39 39 NNW 3 6 30.06 1018 10 16 0.00 0.00
6:53 pm 18:53 Sunny 87 30.6 70 21.1 57 57 Calm 30.06 1018 10 16 0.00 0.00
7:53 pm 19:53 Clear 82 27.8 69 20.6 65 65 Calm 30.08 1019 10 16 0.00 0.00
8:53 pm 20:53 Clear 79 26.1 70 21.1 74 74 Calm 30.08 1019 10 16 0.00 0.00
9:53 pm 21:53 Clear 77 25 71 21.7 82 82 Calm 30.09 1019 10 16 0.00 0.00
10:53 pm 22:53 Clear 77 25 71 21.7 82 82 Calm 30.10 1019 10 16 0.00 0.00
11:53 pm 23:53 Clear 75 23.9 71 21.7 88 88 Calm 30.10 1019 9 14 0.00 0.00

Powered by AerisWeather